Registrering Status Plassering
LN-FAW Operativ ENSI - Ski 

Søk
Kontakt informasjon

Follo flyklubb.
Postboks 226, N-1401 Ski
Epost: post@follo-flyklubb.no

Tel: 47 25 54 90
Du er her: Hovedside

Velkommen til Follo flyklubb

 

Follo flyklubb er en flyklubb med primærbase på Ski flyplass. Disse websidene er ment som en informasjonskanal til flyklubbens medlemmer, og andre som måtte være interessert i Follo flyklubbs virksomhet. Har du kommentarer eller bidrag du ønsker å dele med flyklubben, send oss en melding her.

Har noen av flyklubbens medlemmer forslag til turer, aktiviteter eller kurs- og infokvelder dere ønsker at vi deltar på eller avholder, så gi beskjed til styret via epost.

 

Før flyturen: Ta en sjekk på datoer i sertifikatene dine. Husk at det er forskjell på gyldighetsdato for PPL-sertifikatet og klasserettighet, som f.eks. SEP. Her er noen nyttige spørsmål, og litt om rettigheter her.

ENGM 260050Z 32005KT 250V030 CAVOK 10/04 Q0997
ENTO 260120Z AUTO 25006KT 9999 OVC070/// 10/05 Q0999
ENRY 260120Z AUTO 25007KT 9999NDV SCT070/// OVC090/// 11/06 Q0998
ENSN 090850Z 20010G22KT 150V240 CAVOK 07/03 Q1000
ENCN 260120Z AUTO 25009KT 9999 FEW094/// SCT110/// 10/07 Q1003
ENZV 260120Z 32003KT 9999 FEW010 OVC032 08/06 Q1005
ENFL 260120Z AUTO 34009KT 9999NDV // FEW029/// BKN078/// OVC100/// 06/03 Q1005
ENFG 220850Z 19007KT CAVOK 06/M03 Q1014
ENNO 251450Z VRB02KT 9999 FEW060TCU BKN070 BKN080 19/06 Q1003
 

Leie av LN-FAW

Follo flyklubbs medlemmer har anledning til å leie LN-FAW, booking skjer via MyWebLog. Husk å loggføre turen etter turen.

 




  • Nyheter (0)